Find OneWeb SL0348

NORAD ID: 49213 Int'l Des: 2021-083 Owner: ONEWEBN Country: UK Constellation: oneweb operational
LEOCIRCULARPOLARONEWEB_TYPE

リアルタイム位置

3D地球を読み込み中...

OneWeb SL0348について

説明を読み込み中...

次回通過

Passes for default location (London). Set your location on the main map for personalized predictions.

高度履歴

Loading altitude history...

軌道要素

1 49213U 21083AD 26127.43267022 .00004720 00000-0 11564-1 0 9998
2 49213 87.9159 282.5702 0001782 115.6649 244.4668 13.20811875231439
Epoch: May 7, 2026 • Age: 13 hours

現在のステータス

高度 1199.3 km
速度 7.25 km/s
衛星直下点 -42.82°S, 71.33°E
打ち上げ日 Sep 14, 2021
運用期間 4.6 years
タイプ internet

技術仕様

分類 Payload
質量 148.00 kg
乾燥質量 140.00 kg
総質量 148.00 kg
長さ 1.30 m
直径 1.00 m
スパン 5.00 m
形状 Trapezoid+2 pan
製造者 ONEWUS
バスタイプ ARROW
フェーズステータス In Orbit
所有者/国 ONEWEBN/UK

Most Searched